Regional Weather Roundup
Issued by NWS

Home | Current Version | Previous Version | Graphics & Text | Print | Product List | Glossary On
Versions: 1 2 3 4 5 6 7 8 9 10 11 12 13 14 15 16 17 18 19 20 21 22 23 24 25 26 27 28 29 30 31 32 33 34 35 36 37 38 39 40 41 42 43 44 45 46 47 48 49 50
000
ASUS43 KDMX 241807
RWRIA

WEATHER ROUNDUP FOR IOWA
NATIONAL WEATHER SERVICE DES MOINES IA
1200 PM CST WED DEC 24 2014

NOTE: "FAIR" INDICATES FEW OR NO CLOUDS BELOW 12,000 FEET WITH NO
SIGNIFICANT WEATHER AND/OR OBSTRUCTIONS TO VISIBILITY.

* - THESE STATIONS ARE NOT NWS STATIONS...THUS NOT UNDER NWS
QUALITY CONTROL.  THEY ALSO DO NOT REPORT WEATHER SUCH
AS PRECIPITATION OR FOG.

IAZ001>003-012>014-020>022-031>034-043>046-241900-
   NORTHWEST IOWA

CITY           SKY/WX    TMP DP  RH WIND       PRES   REMARKS
CARROLL *      CLOUDY    34  32  93 NW14      29.77F WCI  24
CHEROKEE *     CLOUDY    32  30  91 NW10      29.80F WCI  24
DENISON *      CLOUDY    32  32 100 NW12      29.78F FOG     WCI  23
LE MARS *      CLOUDY    28  28 100 W12       29.82F WCI  18
ORANGE CITY *  CLOUDY    30  27  86 W12       29.79F WCI  21
SHELDON *      CLOUDY    30  30 100 NW13      29.77F WCI  20
SIOUX CITY     CLOUDY    30  27  88 NW13      29.84F WCI  20
6HR MIN TEMP:  29; 6HR MAX TEMP:  33;

SPENCER        CLOUDY    33  28  81 NW14      29.76F WCI  23
6HR MIN TEMP:  32; 6HR MAX TEMP:  33; 6HR PCP: TRACE;

STORM LAKE *   CLOUDY    32  28  86 NW17      29.77F WCI  21
$$

IAZ055>058-069>071-079>083-090>094-241900-
   SOUTHWEST IOWA

CITY           SKY/WX    TMP DP  RH WIND       PRES   REMARKS
ATLANTIC *     CLOUDY    34  32  93 NW15      29.79F WCI  24
AUDUBON *      PTSUNNY   32  27  80 NW13G20   29.79F WCI  22
CLARINDA *     CLOUDY    34  32  93 NW13      29.83F WCI  25
COUNCIL BLFS * CLOUDY    30  32 100 NW12G18   29.81F FOG     WCI  21
CRESTON *      CLOUDY    32  32 100 NW18      29.78F WCI  20
HARLAN  *      CLOUDY    32  32 100 NW18G26   29.84F WCI  20
LAMONI         CLOUDY    35  31  85 NW16      29.76F WCI  25
6HR MIN TEMP:  34; 6HR MAX TEMP:  35; 6HR PCP: TRACE;

RED OAK *      CLOUDY    34  32  93 NW15      29.82F WCI  24
SHENANDOAH *   CLOUDY    34  32  93 NW14      29.84F WCI  24
$$

IAZ047>049-059>061-072>074-084-241900-
   CENTRAL IOWA

CITY           SKY/WX    TMP DP  RH WIND       PRES   REMARKS
AMES           CLOUDY    34  31  88 NW13      29.73F WCI  25
6HR MIN TEMP:  33; 6HR MAX TEMP:  34;

ANKENY *       CLOUDY    36  32  87 NW12G17   29.74F WCI  27
CHARITON *     CLOUDY    36  32  87 NW12G20   29.73F WCI  27
DES MOINES     CLOUDY    35  31  85 NW15      29.75F WCI  25
6HR MIN TEMP:  35; 6HR MAX TEMP:  35; 6HR PCP: TRACE;

GRINNELL*      CLOUDY    36  32  87 NW13      29.69F WCI  27
KNOXVILLE *    CLOUDY    36  32  87 NW14      29.71F WCI  27
MARSHALLTOWN   CLOUDY    34  32  92 NW13      29.69F WCI  25
6HR MIN TEMP:  33; 6HR MAX TEMP:  34; 6HR PCP: TRACE;

PELLA *        CLOUDY    35  33  92 NW16G23   29.73F WCI  25
PERRY *        CLOUDY    34  32  93 NW10G17   29.76F WCI  26
$$

IAZ004>006-015-016-023>025-035-036-241900-
   NORTH CENTRAL IOWA

CITY           SKY/WX    TMP DP  RH WIND       PRES   REMARKS
ALGONA *       MIX PCPN  32  32 100 NW15G21   29.74F WCI  22
CLARION *      LGT SNOW  32  32 100 NW15      29.72F WCI  22
ESTHERVILLE    CLOUDY    32  29  88 NW14      29.75F WCI  22
6HR MIN TEMP:  30; 6HR MAX TEMP:  32; 6HR PCP: TRACE;

FORT DODGE *   CLOUDY    34  28  80 NW9       29.75F WCI  26
MASON CITY     CLOUDY    33  32  96 NW17      29.71F FOG     WCI  22
6HR MIN TEMP:  33; 6HR MAX TEMP:  34; 6HR PCP: TRACE;

FOREST CITY *  CLOUDY    32  32 100 NW13      29.71F WCI  22
IOWA FALLS *   CLOUDY    34  32  93 NW16      29.71F WCI  23
$$

IAZ007>011-017>019-026>030-037>042-050>054-066-241900-
   NORTHEAST IOWA

CITY           SKY/WX    TMP DP  RH WIND       PRES   REMARKS
CEDAR RAPIDS   CLOUDY    36  33  89 NW13      29.64F WCI  27
6HR MIN TEMP:  34; 6HR MAX TEMP:  36;

CHARLES CITY * CLOUDY    34  34 100 NW13G20   29.67F WCI  25
CLINTON *      CLOUDY    36  30  80 NW9       29.61F WCI  29
DECORAH *      CLOUDY    34  32  93 NW12      29.62F WCI  25
DUBUQUE        CLOUDY    34  32  92 N8        29.59F WCI  27
6HR MIN TEMP:  33; 6HR MAX TEMP:  34;

MONTICELLO *   CLOUDY    36  36 100 NW10      29.61F WCI  28
OELWEIN *      CLOUDY    36  32  87 N14G21    29.65F WCI  27
WATERLOO       CLOUDY    36  33  89 NW15      29.66F WCI  27
6HR MIN TEMP:  33; 6HR MAX TEMP:  36; 6HR PCP: TRACE;

$$

IAZ064-065-067-068-078-241900-
   EAST CENTRAL IOWA

CITY           SKY/WX    TMP DP  RH WIND       PRES   REMARKS
DAVENPORT      CLOUDY    35  32  88 NW8       29.61F WCI  29
6HR MIN TEMP:  34; 6HR MAX TEMP:  35;

IOWA CITY      CLOUDY    36  32  85 NW10      29.66F WCI  28
6HR MIN TEMP:  35; 6HR MAX TEMP:  36;

MT. PLEASANT * LGT RAIN  34  33  93 NW8       29.67F WCI  28
MUSCATINE *    CLOUDY    37  32  81 NW12      29.65F WCI  30
QUAD CITIES    CLOUDY    36  33  89 NW12      29.60F WCI  28
6HR MIN TEMP:  36; 6HR MAX TEMP:  36;

$$

IAZ062-063-075>077-085>089-095>099-241900-
   SOUTHEAST IOWA

CITY           SKY/WX    TMP DP  RH WIND       PRES   REMARKS
BURLINGTON     CLOUDY    36  34  92 NW8       29.64F WCI  30
6HR MIN TEMP:  35; 6HR MAX TEMP:  36; 6HR PCP:  0.01;

FAIRFIELD *    CLOUDY    36  32  87 NW14      29.68F WCI  27
FORT MADISON * CLOUDY    37  36  93 NW12      29.66F FOG     WCI  30
KEOKUK *       CLOUDY    36  34  93 NW14      29.66F WCI  27
OSKALOOSA *    CLOUDY    36  32  87 NW15      29.70S WCI  26
CENTERVILLE *  CLOUDY    36  34  93 NW16      29.73F WCI  26
OTTUMWA        CLOUDY    36  33  89 NW14      29.69F WCI  27
6HR MIN TEMP:  33; 6HR MAX TEMP:  37; 6HR PCP: TRACE;

WASHINGTON *   CLOUDY    36  36 100 NW13      29.66F WCI  27
$$

ABBREVIATIONS USED IN REMARKS
   TC - TEMPERATURES IN CELSIUS
  WCI - WIND CHILL INDEX
   HX - HEAT INDEX
  VSB - VISIBILITY
$$



USA.gov is the U.S. government's official web portal to all federal, state and local government web resources and services.